MAH27M LRIA-LHBP

Flight info

Callsign MAH27M
Flight time 1h 22m
Altitude 10000
Route ARPIG P133 TOMUC/N0459F340 DCT HUMOR DCT BUDOP DCT KEZAL
Aircraft T154/M-SDGRWY/S

Departure

Time 2026-04-25 13:25
Airport Iaşi International Airport (LRIA)

Arrival

Time 2026-04-25 14:47
Airport Budapest Liszt Ferenc International Airport (LHBP)
Time Latitude Longitude Altitude Speed Heading
2026-04-25 11:57 47.17305 27.62173 351 ft 0 kts 239°
2026-04-25 12:48 47.17343 27.62141 353 ft 0 kts 239°
2026-04-25 13:01 47.17346 27.62147 353 ft 2 kts 240°
2026-04-25 13:01 47.17362 27.62180 353 ft 4 kts 229°
2026-04-25 13:01 47.17389 27.62214 353 ft 5 kts 213°
2026-04-25 13:02 47.17406 27.62203 354 ft 2 kts 97°
2026-04-25 13:02 47.17413 27.62184 354 ft 2 kts 123°
2026-04-25 13:02 47.17420 27.62168 355 ft 1 kts 127°
2026-04-25 13:02 47.17423 27.62165 355 ft 1 kts 155°
2026-04-25 13:03 47.17432 27.62158 355 ft 1 kts 150°
2026-04-25 13:03 47.17434 27.62156 355 ft 0 kts 149°
2026-04-25 13:14 47.17420 27.62168 355 ft 6 kts 149°
2026-04-25 13:15 47.17352 27.62225 352 ft 15 kts 150°
2026-04-25 13:15 47.17264 27.62336 348 ft 8 kts 110°
2026-04-25 13:15 47.17261 27.62351 348 ft 1 kts 98°
2026-04-25 13:15 47.17275 27.62415 347 ft 10 kts 49°
2026-04-25 13:16 47.17334 27.62551 345 ft 19 kts 60°
2026-04-25 13:16 47.17344 27.62699 343 ft 16 kts 132°
2026-04-25 13:16 47.17238 27.62793 338 ft 19 kts 145°
2026-04-25 13:16 47.17144 27.62931 332 ft 12 kts 189°
2026-04-25 13:17 47.17139 27.62874 333 ft 5 kts 320°
2026-04-25 13:17 47.17160 27.62853 334 ft 0 kts 330°
2026-04-25 13:24 47.17191 27.62827 336 ft 29 kts 330°
2026-04-25 13:25 47.17645 27.62431 357 ft 118 kts 328°
2026-04-25 13:25 47.18565 27.61609 456 ft 183 kts 328°
2026-04-25 13:25 47.19720 27.60694 1187 ft 196 kts 335°
2026-04-25 13:25 47.20903 27.59889 2377 ft 186 kts 334°
2026-04-25 13:26 47.22152 27.59133 2999 ft 216 kts 337°
2026-04-25 13:26 47.23726 27.58258 3068 ft 252 kts 338°
2026-04-25 13:26 47.25315 27.57242 3645 ft 245 kts 324°
2026-04-25 13:26 47.26524 27.55511 4013 ft 247 kts 301°
2026-04-25 13:27 47.27322 27.53238 4294 ft 254 kts 295°
2026-04-25 13:27 47.28049 27.50930 4996 ft 243 kts 293°
2026-04-25 13:27 47.28683 27.48722 5731 ft 232 kts 290°
2026-04-25 13:27 47.29230 27.46482 6098 ft 239 kts 288°
2026-04-25 13:28 47.29800 27.44045 6353 ft 259 kts 289°
2026-04-25 13:28 47.30000 27.43229 6536 ft 261 kts 290°
2026-04-25 13:28 47.31147 27.39314 8291 ft 238 kts 296°
2026-04-25 13:28 47.31897 27.36993 8391 ft 266 kts 295°
2026-04-25 13:29 47.32712 27.34438 8722 ft 280 kts 295°
2026-04-25 13:29 47.33564 27.31977 9793 ft 266 kts 299°
2026-04-25 13:29 47.34455 27.29761 11046 ft 244 kts 299°
2026-04-25 13:30 47.35953 27.25145 11720 ft 272 kts 294°
2026-04-25 13:30 47.36750 27.22495 11947 ft 287 kts 295°
2026-04-25 13:30 47.37606 27.19915 12811 ft 278 kts 298°
2026-04-25 13:31 47.39465 27.15296 14479 ft 261 kts 297°
2026-04-25 13:31 47.40279 27.12817 14599 ft 280 kts 297°
2026-04-25 13:31 47.41228 27.10178 14818 ft 293 kts 300°
2026-04-25 13:31 47.42207 27.07597 15518 ft 288 kts 297°
2026-04-25 13:32 47.43057 27.05007 16460 ft 275 kts 296°
2026-04-25 13:32 47.43901 27.02534 17119 ft 272 kts 299°
2026-04-25 13:32 47.44881 27.00060 17339 ft 285 kts 303°
2026-04-25 13:32 47.45981 26.97547 17502 ft 298 kts 300°
2026-04-25 13:33 47.46913 26.94789 17945 ft 302 kts 291°
2026-04-25 13:33 47.47562 26.91866 18671 ft 296 kts 288°
2026-04-25 13:33 47.48143 26.89022 19513 ft 287 kts 289°
2026-04-25 13:33 47.48346 26.88076 19751 ft 285 kts 290°
2026-04-25 13:34 47.49535 26.83512 20350 ft 296 kts 295°
2026-04-25 13:34 47.50422 26.80693 20517 ft 308 kts 297°
2026-04-25 13:34 47.51141 26.77646 20682 ft 321 kts 277°
2026-04-25 13:34 47.50936 26.74245 20503 ft 348 kts 257°
2026-04-25 13:35 47.50354 26.72026 20771 ft 350 kts 254°
2026-04-25 13:35 47.49793 26.67631 22478 ft 310 kts 274°
2026-04-25 13:35 47.49599 26.64549 23167 ft 307 kts 264°
2026-04-25 13:35 47.49127 26.61335 23010 ft 330 kts 263°
2026-04-25 13:36 47.48797 26.57905 23067 ft 339 kts 272°
2026-04-25 13:36 47.48889 26.54521 23873 ft 327 kts 272°
2026-04-25 13:36 47.48883 26.51220 24252 ft 331 kts 274°
2026-04-25 13:36 47.48979 26.47687 23669 ft 360 kts 278°
2026-04-25 13:37 47.49233 26.43890 23484 ft 375 kts 279°
2026-04-25 13:37 47.49605 26.40111 24094 ft 368 kts 282°
2026-04-25 13:37 47.49963 26.36376 24017 ft 381 kts 281°
2026-04-25 13:37 47.50409 26.32358 22693 ft 420 kts 283°
2026-04-25 13:38 47.51074 26.28079 20682 ft 441 kts 286°
2026-04-25 13:38 47.51992 26.23756 18697 ft 454 kts 291°
2026-04-25 13:38 47.53177 26.19485 17220 ft 446 kts 294°
2026-04-25 13:38 47.54282 26.15595 17594 ft 373 kts 293°
2026-04-25 13:39 47.55231 26.12188 17625 ft 349 kts 294°
2026-04-25 13:39 47.56248 26.08921 16273 ft 367 kts 297°
2026-04-25 13:39 47.57502 26.05527 14389 ft 386 kts 302°
2026-04-25 13:39 47.58844 26.02375 15078 ft 337 kts 303°
2026-04-25 13:40 47.60197 25.99754 15237 ft 312 kts 313°
2026-04-25 13:40 47.61848 25.97698 14897 ft 305 kts 321°
2026-04-25 13:40 47.63546 25.95858 14389 ft 304 kts 326°
2026-04-25 13:40 47.65548 25.94776 13789 ft 310 kts 353°
2026-04-25 13:41 47.67635 25.95434 13313 ft 320 kts 27°
2026-04-25 13:41 47.69492 25.97185 12984 ft 313 kts 28°
2026-04-25 13:41 47.71305 25.98961 12754 ft 303 kts 30°
2026-04-25 13:41 47.72988 26.00810 12330 ft 304 kts 34°
2026-04-25 13:42 47.74588 26.02897 11685 ft 313 kts 40°
2026-04-25 13:42 47.76078 26.05328 10953 ft 322 kts 48°
2026-04-25 13:42 47.77332 26.08051 10377 ft 325 kts 57°
2026-04-25 13:42 47.78282 26.11083 9984 ft 321 kts 68°
2026-04-25 13:43 47.78820 26.14266 9565 ft 319 kts 81°
2026-04-25 13:43 47.78901 26.17569 8977 ft 321 kts 94°
2026-04-25 13:43 47.78463 26.20852 8281 ft 325 kts 109°
2026-04-25 13:43 47.77509 26.23859 7676 ft 323 kts 121°
2026-04-25 13:44 47.76383 26.26711 7133 ft 319 kts 122°
2026-04-25 13:44 47.75237 26.29499 6681 ft 312 kts 123°
2026-04-25 13:44 47.74061 26.32149 6309 ft 304 kts 126°
2026-04-25 13:44 47.72794 26.34618 5834 ft 299 kts 131°
2026-04-25 13:45 47.71394 26.36881 5221 ft 300 kts 136°
2026-04-25 13:45 47.69868 26.38992 4596 ft 300 kts 141°
2026-04-25 13:45 47.68213 26.40863 4069 ft 296 kts 148°
2026-04-25 13:45 47.66458 26.42351 3601 ft 290 kts 156°
2026-04-25 13:46 47.64619 26.43476 3134 ft 285 kts 158°
2026-04-25 13:46 47.62814 26.44627 2684 ft 281 kts 156°
2026-04-25 13:46 47.61046 26.45774 2427 ft 268 kts 156°
2026-04-25 13:46 47.59389 26.46807 2206 ft 257 kts 158°
2026-04-25 13:47 47.57696 26.47794 2100 ft 277 kts 158°
2026-04-25 13:47 47.55772 26.48884 2366 ft 299 kts 161°
2026-04-25 13:47 47.53882 26.49840 3678 ft 296 kts 163°
2026-04-25 13:47 47.51889 26.50629 5211 ft 301 kts 170°
2026-04-25 13:48 47.49868 26.51051 6764 ft 305 kts 179°
2026-04-25 13:48 47.47748 26.51005 8228 ft 313 kts 183°
2026-04-25 13:48 47.45555 26.51059 9549 ft 329 kts 180°
2026-04-25 13:48 47.43231 26.51290 10835 ft 345 kts 178°
2026-04-25 13:49 47.40838 26.51576 12209 ft 353 kts 179°
2026-04-25 13:49 47.38404 26.51772 13605 ft 357 kts 182°
2026-04-25 13:49 47.35938 26.51725 14959 ft 362 kts 187°
2026-04-25 13:49 47.33303 26.51451 15390 ft 396 kts 188°
2026-04-25 13:50 47.30539 26.51001 16462 ft 406 kts 192°
2026-04-25 13:50 47.27828 26.50200 18229 ft 395 kts 199°
2026-04-25 13:50 47.25273 26.49002 19530 ft 398 kts 203°
2026-04-25 13:50 47.22575 26.47599 19948 ft 424 kts 205°
2026-04-25 13:51 47.19865 26.45946 21177 ft 426 kts 208°
2026-04-25 13:51 47.17164 26.44064 22419 ft 429 kts 211°
2026-04-25 13:51 47.14491 26.42105 23474 ft 437 kts 211°
2026-04-25 13:51 47.11768 26.40021 24320 ft 447 kts 214°
2026-04-25 13:52 47.09118 26.37749 24574 ft 433 kts 218°
2026-04-25 13:52 47.06659 26.35247 24526 ft 426 kts 223°
2026-04-25 13:52 47.04451 26.32420 24403 ft 424 kts 230°
2026-04-25 13:52 47.02533 26.29122 24359 ft 423 kts 240°
2026-04-25 13:53 47.01068 26.25435 24294 ft 418 kts 251°
2026-04-25 13:53 47.00188 26.21423 24296 ft 411 kts 263°
2026-04-25 13:53 47.00028 26.17294 24295 ft 405 kts 278°
2026-04-25 13:53 47.00684 26.13289 24318 ft 399 kts 291°
2026-04-25 13:54 47.01236 26.09361 24322 ft 403 kts 275°
2026-04-25 13:54 47.01317 26.05212 24383 ft 403 kts 273°
2026-04-25 13:54 47.01088 26.01117 24368 ft 407 kts 265°
2026-04-25 13:54 47.00665 25.97034 24363 ft 408 kts 265°
2026-04-25 13:55 47.00237 25.92920 24371 ft 408 kts 265°
2026-04-25 13:55 46.99884 25.88790 24435 ft 406 kts 268°
2026-04-25 13:55 46.99731 25.84691 24423 ft 404 kts 274°
2026-04-25 13:55 46.99864 25.80621 24416 ft 402 kts 277°
2026-04-25 13:56 46.99813 25.76512 24390 ft 407 kts 267°
2026-04-25 13:56 46.99411 25.72361 24401 ft 408 kts 264°
2026-04-25 13:56 46.98990 25.68295 24401 ft 407 kts 267°
2026-04-25 13:56 46.98779 25.64187 24397 ft 406 kts 271°
2026-04-25 13:57 46.98667 25.60061 24393 ft 406 kts 271°
2026-04-25 13:57 46.98621 25.58652 24392 ft 406 kts 270°
2026-04-25 13:57 46.98311 25.51794 24399 ft 407 kts 269°
2026-04-25 13:57 46.98054 25.47658 24401 ft 407 kts 268°
2026-04-25 13:58 46.97742 25.43539 24402 ft 408 kts 268°
2026-04-25 13:58 46.97479 25.39451 24310 ft 409 kts 270°
2026-04-25 13:58 46.97313 25.35284 24328 ft 398 kts 272°
2026-04-25 13:58 46.97146 25.31342 24290 ft 381 kts 268°
2026-04-25 13:59 46.96916 25.27576 24159 ft 368 kts 269°
2026-04-25 13:59 46.96716 25.23915 24333 ft 347 kts 270°
2026-04-25 13:59 46.96559 25.20462 24369 ft 333 kts 270°
2026-04-25 13:59 46.96380 25.17145 24321 ft 323 kts 269°
2026-04-25 14:00 46.96316 25.16057 24311 ft 320 kts 269°
2026-04-25 14:00 46.95983 25.10751 24304 ft 315 kts 269°
2026-04-25 14:00 46.95776 25.07548 24319 ft 312 kts 269°
2026-04-25 14:00 46.95571 25.04410 24334 ft 310 kts 269°
2026-04-25 14:01 46.95365 25.01264 24335 ft 308 kts 269°
2026-04-25 14:01 46.95169 24.98128 24326 ft 312 kts 269°
2026-04-25 14:01 46.94975 24.94947 24356 ft 318 kts 269°
2026-04-25 14:01 46.94778 24.91701 24325 ft 324 kts 269°
2026-04-25 14:02 46.94578 24.88400 24321 ft 330 kts 269°
2026-04-25 14:02 46.94369 24.84993 24297 ft 336 kts 269°
2026-04-25 14:02 46.94160 24.81612 24333 ft 340 kts 269°
2026-04-25 14:02 46.94089 24.80478 24340 ft 341 kts 269°
2026-04-25 14:03 46.93727 24.74643 24352 ft 348 kts 269°
2026-04-25 14:03 46.93506 24.71125 24352 ft 351 kts 269°
2026-04-25 14:03 46.93283 24.67560 24352 ft 354 kts 269°
2026-04-25 14:03 46.93055 24.63941 24336 ft 357 kts 269°
2026-04-25 14:04 46.92824 24.60306 24329 ft 360 kts 269°
2026-04-25 14:04 46.92590 24.56641 24326 ft 362 kts 269°
2026-04-25 14:04 46.92356 24.52983 24315 ft 364 kts 269°
2026-04-25 14:04 46.92118 24.49285 24310 ft 366 kts 269°
2026-04-25 14:05 46.91876 24.45547 24307 ft 367 kts 269°
2026-04-25 14:05 46.91633 24.41812 24300 ft 369 kts 269°
2026-04-25 14:05 46.91389 24.38079 24303 ft 370 kts 269°
2026-04-25 14:05 46.91142 24.34313 24300 ft 371 kts 268°
2026-04-25 14:06 46.90897 24.30582 24233 ft 374 kts 268°
2026-04-25 14:06 46.90643 24.26764 24245 ft 374 kts 268°
2026-04-25 14:06 46.90393 24.23023 24261 ft 375 kts 268°
2026-04-25 14:06 46.90137 24.19212 24266 ft 375 kts 268°
2026-04-25 14:07 46.89881 24.15449 24270 ft 376 kts 268°
2026-04-25 14:07 46.89605 24.11652 24266 ft 376 kts 268°
2026-04-25 14:07 46.89333 24.07867 24269 ft 376 kts 268°
2026-04-25 14:07 46.89066 24.04051 24271 ft 376 kts 268°
2026-04-25 14:08 46.88803 24.00259 24272 ft 376 kts 268°
2026-04-25 14:08 46.88539 23.96442 24274 ft 377 kts 268°
2026-04-25 14:08 46.88276 23.92642 24276 ft 377 kts 268°
2026-04-25 14:08 46.88007 23.88800 24280 ft 377 kts 268°
2026-04-25 14:09 46.87740 23.84990 24277 ft 377 kts 268°
2026-04-25 14:09 46.87472 23.81181 24281 ft 377 kts 268°
2026-04-25 14:09 46.87206 23.77411 24282 ft 377 kts 268°
2026-04-25 14:09 46.87114 23.76114 24283 ft 377 kts 268°
2026-04-25 14:10 46.86662 23.69772 24280 ft 377 kts 268°
2026-04-25 14:10 46.86390 23.65977 24279 ft 378 kts 268°
2026-04-25 14:10 46.86114 23.62149 24279 ft 378 kts 268°
2026-04-25 14:10 46.85839 23.58345 24278 ft 378 kts 268°
2026-04-25 14:11 46.85560 23.54513 24279 ft 378 kts 268°
2026-04-25 14:11 46.85279 23.50671 24279 ft 378 kts 268°
2026-04-25 14:11 46.85001 23.46883 24277 ft 378 kts 268°
2026-04-25 14:11 46.84719 23.43057 24279 ft 378 kts 268°
2026-04-25 14:12 46.84436 23.39244 24277 ft 378 kts 268°
2026-04-25 14:12 46.84150 23.35391 24276 ft 378 kts 268°
2026-04-25 14:12 46.83867 23.31612 24232 ft 379 kts 268°
2026-04-25 14:12 46.83578 23.27759 24236 ft 379 kts 268°
2026-04-25 14:13 46.83292 23.23963 24247 ft 379 kts 267°
2026-04-25 14:13 46.82999 23.20092 24254 ft 379 kts 267°
2026-04-25 14:13 46.82708 23.16293 24263 ft 379 kts 268°
2026-04-25 14:13 46.82416 23.12452 24263 ft 379 kts 268°
2026-04-25 14:14 46.82124 23.08636 24265 ft 379 kts 267°
2026-04-25 14:14 46.81826 23.04790 24271 ft 379 kts 268°
2026-04-25 14:14 46.81531 23.00992 24272 ft 379 kts 268°
2026-04-25 14:14 46.81233 22.97162 24272 ft 379 kts 268°
2026-04-25 14:15 46.80931 22.93308 24273 ft 379 kts 268°
2026-04-25 14:15 46.80832 22.92034 24275 ft 379 kts 268°
2026-04-25 14:15 46.80328 22.85648 24274 ft 379 kts 267°
2026-04-25 14:15 46.80027 22.81853 24276 ft 379 kts 267°
2026-04-25 14:16 46.79723 22.78029 24276 ft 379 kts 267°
2026-04-25 14:16 46.79417 22.74190 24275 ft 379 kts 268°
2026-04-25 14:16 46.79113 22.70401 24278 ft 379 kts 268°
2026-04-25 14:16 46.78783 22.66552 24280 ft 380 kts 265°
2026-04-25 14:17 46.78400 22.62796 24284 ft 379 kts 267°
2026-04-25 14:17 46.78124 22.58944 24279 ft 378 kts 269°
2026-04-25 14:17 46.77854 22.55140 24279 ft 378 kts 268°
2026-04-25 14:17 46.77554 22.51311 24281 ft 379 kts 267°
2026-04-25 14:18 46.77244 22.47500 24279 ft 379 kts 267°
2026-04-25 14:18 46.76931 22.43698 24279 ft 379 kts 267°
2026-04-25 14:18 46.76639 22.40161 24283 ft 379 kts 267°
2026-04-25 14:18 46.76318 22.36302 24278 ft 379 kts 267°
2026-04-25 14:19 46.76000 22.32492 24248 ft 380 kts 267°
2026-04-25 14:19 46.75680 22.28676 24245 ft 380 kts 266°
2026-04-25 14:19 46.75357 22.24838 24249 ft 380 kts 266°
2026-04-25 14:19 46.75036 22.21039 24261 ft 380 kts 266°
2026-04-25 14:20 46.74706 22.17163 24265 ft 380 kts 266°
2026-04-25 14:20 46.74601 22.15931 24267 ft 380 kts 266°
2026-04-25 14:20 46.74054 22.09543 24274 ft 380 kts 266°
2026-04-25 14:20 46.73724 22.05703 24275 ft 380 kts 266°
2026-04-25 14:21 46.73394 22.01881 24275 ft 380 kts 266°
2026-04-25 14:21 46.73062 21.98052 24277 ft 380 kts 266°
2026-04-25 14:21 46.72758 21.94245 24274 ft 378 kts 270°
2026-04-25 14:21 46.72957 21.90442 24198 ft 375 kts 284°
2026-04-25 14:22 46.73639 21.86788 23973 ft 377 kts 289°
2026-04-25 14:22 46.74480 21.83107 23603 ft 383 kts 290°
2026-04-25 14:22 46.75365 21.79406 22870 ft 398 kts 291°
2026-04-25 14:22 46.76299 21.75582 22137 ft 398 kts 291°
2026-04-25 14:23 46.77220 21.71835 21524 ft 390 kts 291°
2026-04-25 14:23 46.78130 21.68141 20911 ft 382 kts 291°
2026-04-25 14:23 46.79012 21.64564 20263 ft 376 kts 291°
2026-04-25 14:23 46.79895 21.60981 19559 ft 371 kts 291°
2026-04-25 14:24 46.80761 21.57463 18836 ft 367 kts 291°
2026-04-25 14:24 46.81624 21.53955 18101 ft 364 kts 291°
2026-04-25 14:24 46.82467 21.50521 17361 ft 361 kts 291°
2026-04-25 14:24 46.83313 21.47074 16595 ft 358 kts 291°
2026-04-25 14:25 46.83869 21.44802 16089 ft 356 kts 291°
2026-04-25 14:25 46.84980 21.40258 15069 ft 353 kts 292°
2026-04-25 14:25 46.85791 21.36934 14311 ft 350 kts 292°
2026-04-25 14:25 46.86061 21.35828 14058 ft 350 kts 292°
2026-04-25 14:26 46.87409 21.30268 12784 ft 345 kts 291°
2026-04-25 14:26 46.88192 21.27025 12174 ft 338 kts 291°
2026-04-25 14:26 46.88965 21.23830 11552 ft 332 kts 291°
2026-04-25 14:26 46.89727 21.20681 10921 ft 327 kts 291°
2026-04-25 14:27 46.90482 21.17563 10283 ft 322 kts 291°
2026-04-25 14:27 46.91223 21.14494 9776 ft 313 kts 292°
2026-04-25 14:27 46.91917 21.11604 9793 ft 291 kts 292°
2026-04-25 14:27 46.92627 21.08677 9939 ft 322 kts 292°
2026-04-25 14:28 46.93406 21.05467 10113 ft 347 kts 291°
2026-04-25 14:28 46.94213 21.02111 10126 ft 358 kts 291°
2026-04-25 14:28 46.95037 20.98662 10066 ft 358 kts 291°
2026-04-25 14:28 46.95869 20.95170 10081 ft 360 kts 291°
2026-04-25 14:29 46.96684 20.91753 10078 ft 356 kts 291°
2026-04-25 14:29 46.97506 20.88305 10064 ft 350 kts 291°
2026-04-25 14:29 46.98307 20.84942 10051 ft 345 kts 291°
2026-04-25 14:29 46.99100 20.81612 10034 ft 342 kts 292°
2026-04-25 14:30 46.99879 20.78333 10030 ft 338 kts 291°
2026-04-25 14:30 47.01405 20.71899 10016 ft 333 kts 291°
2026-04-25 14:30 47.02170 20.68665 10009 ft 331 kts 291°
2026-04-25 14:31 47.02914 20.65519 10008 ft 329 kts 292°
2026-04-25 14:31 47.03668 20.62321 10004 ft 328 kts 291°
2026-04-25 14:31 47.04405 20.59194 10003 ft 326 kts 291°
2026-04-25 14:31 47.05147 20.56039 10002 ft 325 kts 292°
2026-04-25 14:32 47.05878 20.52930 9998 ft 324 kts 291°
2026-04-25 14:32 47.06616 20.49782 9996 ft 323 kts 292°
2026-04-25 14:32 47.07348 20.46656 9992 ft 322 kts 291°
2026-04-25 14:32 47.08072 20.43563 9990 ft 319 kts 292°
2026-04-25 14:33 47.08783 20.40523 9982 ft 314 kts 292°
2026-04-25 14:33 47.09489 20.37501 9961 ft 304 kts 292°
2026-04-25 14:33 47.10168 20.34598 9937 ft 296 kts 291°
2026-04-25 14:33 47.10778 20.32026 9874 ft 291 kts 291°
2026-04-25 14:34 47.11430 20.29281 9862 ft 284 kts 291°
2026-04-25 14:34 47.12068 20.26557 9867 ft 277 kts 291°
2026-04-25 14:34 47.12690 20.23886 9867 ft 279 kts 291°
2026-04-25 14:34 47.13324 20.21162 9903 ft 286 kts 291°
2026-04-25 14:35 47.13977 20.18344 9804 ft 295 kts 291°
2026-04-25 14:35 47.14651 20.15428 9372 ft 304 kts 291°
2026-04-25 14:35 47.15330 20.12480 8920 ft 303 kts 291°
2026-04-25 14:35 47.15986 20.09608 8385 ft 291 kts 291°
2026-04-25 14:36 47.16613 20.06856 7738 ft 283 kts 291°
2026-04-25 14:36 47.17236 20.04142 7265 ft 278 kts 291°
2026-04-25 14:36 47.17849 20.01471 6837 ft 273 kts 291°
2026-04-25 14:36 47.18448 19.98854 6533 ft 263 kts 291°
2026-04-25 14:37 47.19016 19.96368 6287 ft 253 kts 291°
2026-04-25 14:37 47.19569 19.93945 6064 ft 242 kts 291°
2026-04-25 14:37 47.20107 19.91603 6038 ft 250 kts 291°
2026-04-25 14:37 47.20651 19.89230 6091 ft 241 kts 291°
2026-04-25 14:38 47.21177 19.86905 5902 ft 241 kts 291°
2026-04-25 14:38 47.21705 19.84495 5412 ft 253 kts 289°
2026-04-25 14:38 47.22214 19.81958 4924 ft 262 kts 288°
2026-04-25 14:38 47.22722 19.79363 4367 ft 270 kts 288°
2026-04-25 14:39 47.23226 19.76770 3552 ft 262 kts 287°
2026-04-25 14:39 47.23705 19.74197 3010 ft 255 kts 287°
2026-04-25 14:39 47.24134 19.71774 2977 ft 236 kts 285°
2026-04-25 14:39 47.24500 19.69508 2973 ft 217 kts 285°
2026-04-25 14:40 47.24702 19.68126 2994 ft 205 kts 284°
2026-04-25 14:40 47.25053 19.65585 3496 ft 186 kts 285°
2026-04-25 14:40 47.25337 19.63681 3443 ft 194 kts 286°
2026-04-25 14:40 47.25653 19.61774 3161 ft 189 kts 287°
2026-04-25 14:41 47.25971 19.59951 2988 ft 181 kts 287°
2026-04-25 14:41 47.26286 19.58169 2876 ft 180 kts 288°
2026-04-25 14:41 47.26606 19.56390 2891 ft 177 kts 288°
2026-04-25 14:41 47.26934 19.54627 3060 ft 176 kts 288°
2026-04-25 14:42 47.27320 19.53017 3581 ft 161 kts 294°
2026-04-25 14:42 47.27504 19.52511 3629 ft 168 kts 305°
2026-04-25 14:42 47.29122 19.50262 3418 ft 208 kts 320°
2026-04-25 14:42 47.30159 19.48870 3202 ft 199 kts 315°
2026-04-25 14:43 47.31146 19.47479 2949 ft 189 kts 314°
2026-04-25 14:43 47.32041 19.46128 2730 ft 183 kts 313°
2026-04-25 14:43 47.32916 19.44694 2544 ft 196 kts 311°
2026-04-25 14:43 47.33851 19.43126 2501 ft 211 kts 312°
2026-04-25 14:44 47.34817 19.41484 2414 ft 202 kts 310°
2026-04-25 14:44 47.35658 19.40077 2413 ft 171 kts 312°
2026-04-25 14:44 47.36393 19.38915 2155 ft 144 kts 312°
2026-04-25 14:44 47.37083 19.37793 1932 ft 145 kts 311°
2026-04-25 14:45 47.37739 19.36729 1632 ft 139 kts 312°
2026-04-25 14:45 47.38384 19.35677 1511 ft 136 kts 310°
2026-04-25 14:45 47.39012 19.34666 1360 ft 136 kts 309°
2026-04-25 14:45 47.39632 19.33678 1201 ft 137 kts 311°
2026-04-25 14:46 47.40280 19.32627 993 ft 137 kts 309°
2026-04-25 14:46 47.40909 19.31593 827 ft 135 kts 313°
2026-04-25 14:46 47.41544 19.30603 667 ft 135 kts 313°
2026-04-25 14:46 47.42216 19.29510 490 ft 141 kts 313°
2026-04-25 14:47 47.42780 19.28600 427 ft 98 kts 313°
2026-04-25 14:47 47.42921 19.28373 432 ft 88 kts 309°
2026-04-25 14:47 47.43469 19.27492 459 ft 54 kts 311°
2026-04-25 14:47 47.43674 19.27139 469 ft 35 kts 301°
2026-04-25 14:48 47.43744 19.26888 475 ft 21 kts 282°
2026-04-25 14:48 47.43770 19.26720 477 ft 13 kts 281°
2026-04-25 14:48 47.43788 19.26600 480 ft 11 kts 283°
2026-04-25 14:48 47.43798 19.26506 481 ft 8 kts 260°
2026-04-25 14:49 47.43769 19.26445 481 ft 7 kts 223°
2026-04-25 14:49 47.43736 19.26401 481 ft 6 kts 221°
2026-04-25 14:49 47.43701 19.26354 481 ft 7 kts 223°
2026-04-25 14:49 47.43666 19.26306 481 ft 7 kts 224°
2026-04-25 14:50 47.43628 19.26251 481 ft 7 kts 222°
2026-04-25 14:50 47.43599 19.26213 480 ft 5 kts 222°
2026-04-25 14:50 47.43538 19.26134 480 ft 11 kts 221°
2026-04-25 14:50 47.43494 19.26073 479 ft 6 kts 225°
2026-04-25 14:51 47.43469 19.26041 478 ft 2 kts 196°
2026-04-25 14:51 47.43456 19.26052 478 ft 2 kts 129°
2026-04-25 14:51 47.43441 19.26079 478 ft 3 kts 128°
2026-04-25 14:51 47.43423 19.26109 478 ft 1 kts 132°
2026-04-25 14:52 47.43417 19.26119 478 ft 0 kts 132°